Plymouth, NH

10:53 AM EST on November 21, 2019 (GMT -0500)
Plymouth

Weather History for K1P1 - October, 2019

Change the Weather History Date:

Sunday, October 20, 2019

  Actual Average (WUND) Record (WUND)
Temperature  
Mean Temperature 40 °F -  
Max Temperature 52 °F - - (-1)
Min Temperature 28 °F - - (-1)
Degree Days  
Heating Degree Days 25    
Moisture  
Dew Point 36 °F    
Average Humidity 88    
Maximum Humidity 100    
Minimum Humidity 59    
Precipitation  
Precipitation 0.11 in - - ()
Sea Level Pressure  
Sea Level Pressure 30.08 in    
Wind  
Wind Speed 0 mph ()    
Max Wind Speed 6 mph    
Max Gust Speed -    
Visibility 8.0 miles    
Events Rain    
Averages and records for this station are not official NWS values.
T = Trace of Precipitation, MM = Missing Value Source: Averaged Metar Reports

Daily Weather History Graph

Daily Weather History Graph

Search for Another Location

Airport or City:

Astronomy

Oct. 20, 2019 Rise Set
Actual Time 7:07 AM EDT 5:55 PM EDT
Civil Twilight 6:38 AM EDT 6:24 PM EDT
Nautical Twilight 6:04 AM EDT 6:58 PM EDT
Astronomical Twilight 5:31 AM EDT 7:31 PM EDT
Moon 10:53 PM EDT (10/20) 1:40 PM EDT (10/20)
Length of Visible Light 11h 46m
Length of Day
10h 48m
Waning Gibbous, 59% of the Moon is Illuminated
Oct 20
Waning Gibbous
Oct 21
Last Quarter
Oct 27
New
Nov 4
First Quarter
Nov 12
Full

Hourly Weather History & Observations

Time (EDT) Temp. Windchill Dew Point Humidity Pressure Visibility Wind Dir Wind Speed Gust Speed Precip Events Conditions
12:15 AM 31.3 °F - 31.1 °F 99% 30.06 in 10.0 mi Calm Calm - N/A   Clear
12:35 AM 31.1 °F - 30.9 °F 99% 30.06 in 10.0 mi Calm Calm - N/A   Clear
12:55 AM 30.6 °F - 30.4 °F 99% 30.07 in 10.0 mi Calm Calm - N/A   Clear
1:15 AM 30.0 °F - 30.0 °F 100% 30.07 in 10.0 mi Calm Calm - N/A   Clear
1:35 AM 30.0 °F - 30.0 °F 100% 30.07 in 10.0 mi Calm Calm - N/A   Clear
1:55 AM 29.8 °F - 29.8 °F 100% 30.07 in 7.0 mi Calm Calm - N/A   Clear
2:15 AM 30.0 °F - 30.0 °F 100% 30.07 in 10.0 mi Calm Calm - N/A   Scattered Clouds
2:35 AM 29.1 °F - 28.9 °F 99% 30.07 in 7.0 mi Calm Calm - N/A   Clear
2:55 AM 28.8 °F - 28.6 °F 99% 30.08 in 10.0 mi Calm Calm - N/A   Clear
3:15 AM 29.3 °F - 29.1 °F 99% 30.08 in 10.0 mi Calm Calm - N/A   Clear
3:35 AM 29.3 °F - 29.3 °F 100% 30.08 in 10.0 mi Calm Calm - N/A   Clear
3:55 AM 29.3 °F - 29.1 °F 99% 30.09 in 10.0 mi Calm Calm - N/A   Scattered Clouds
4:15 AM 28.4 °F - 28.2 °F 99% 30.09 in 10.0 mi Calm Calm - N/A   Clear
4:35 AM 28.4 °F - 28.4 °F 100% 30.10 in 10.0 mi Calm Calm - N/A   Mostly Cloudy
4:55 AM 28.8 °F - 28.6 °F 99% 30.09 in 0.8 mi Calm Calm - N/A   Overcast
5:15 AM 29.5 °F - 29.3 °F 99% 30.10 in 1.8 mi Calm Calm - N/A   Overcast
5:35 AM 29.8 °F - 29.7 °F 99% 30.09 in 1.0 mi Calm Calm - N/A   Overcast
5:55 AM 29.1 °F - 28.9 °F 99% 30.10 in 7.0 mi Calm Calm - N/A   Scattered Clouds
6:15 AM 29.3 °F - 29.1 °F 99% 30.09 in 10.0 mi Calm Calm - N/A   Clear
6:35 AM 29.7 °F - 29.5 °F 99% 30.09 in 10.0 mi Calm Calm - N/A   Scattered Clouds
6:55 AM 29.3 °F - 29.3 °F 100% 30.10 in 10.0 mi Calm Calm - N/A   Scattered Clouds
7:15 AM 29.5 °F - 29.3 °F 99% 30.10 in 10.0 mi Calm Calm - N/A   Clear
7:35 AM 30.0 °F - 30.0 °F 100% 30.10 in 7.0 mi Calm Calm - N/A   Scattered Clouds
7:55 AM 30.2 °F - 30.2 °F 100% 30.11 in 10.0 mi Calm Calm - N/A   Clear
8:15 AM 30.7 °F - 30.7 °F 100% 30.12 in 10.0 mi Calm Calm - N/A   Clear
8:35 AM 31.3 °F - 31.1 °F 99% 30.12 in 10.0 mi Calm Calm - N/A   Clear
8:55 AM 32.4 °F - 32.2 °F 99% 30.12 in 10.0 mi Calm Calm - N/A   Clear
9:15 AM 34.0 °F - 33.6 °F 99% 30.12 in 10.0 mi Calm Calm - N/A   Clear
9:35 AM 35.1 °F - 34.0 °F 96% 30.12 in 10.0 mi Calm Calm - N/A   Clear
9:55 AM 36.0 °F - 34.2 °F 93% 30.12 in 10.0 mi Calm Calm - N/A   Clear
10:15 AM 36.9 °F - 34.9 °F 93% 30.12 in 10.0 mi Calm Calm - N/A   Clear
10:35 AM 38.3 °F - 35.8 °F 91% 30.12 in 10.0 mi Calm Calm - N/A   Clear
10:55 AM 40.1 °F - 35.6 °F 84% 30.13 in 10.0 mi Calm Calm - N/A   Scattered Clouds
11:15 AM 41.9 °F - 35.1 °F 77% 30.12 in 10.0 mi Calm Calm - N/A   Mostly Cloudy
11:35 AM 43.5 °F - 35.4 °F 73% 30.12 in 10.0 mi Calm Calm - N/A   Mostly Cloudy
11:55 AM 45.3 °F - 35.4 °F 68% 30.11 in 10.0 mi Calm Calm - N/A   Scattered Clouds
12:15 PM 47.5 °F - 35.8 °F 64% 30.10 in 10.0 mi Calm Calm - N/A   Clear
12:35 PM 49.5 °F - 36.7 °F 61% 30.09 in 10.0 mi East 3.5 mph - N/A   Clear
12:55 PM 50.2 °F - 37.0 °F 61% 30.09 in 10.0 mi ENE 5.8 mph - N/A   Clear
1:15 PM 50.9 °F - 37.8 °F 61% 30.08 in 10.0 mi NE 3.5 mph - N/A   Clear
1:35 PM 51.8 °F - 38.5 °F 60% 30.07 in 7.0 mi NNE 4.6 mph - N/A   Clear
1:55 PM 52.3 °F - 38.5 °F 59% 30.07 in 10.0 mi Calm Calm - N/A   Clear
2:15 PM 52.3 °F - 38.7 °F 60% 30.07 in 4.0 mi East 5.8 mph - N/A   Haze
2:35 PM 52.5 °F - 39.0 °F 60% 30.06 in 4.0 mi East 4.6 mph - N/A   Haze
2:55 PM 52.7 °F - 39.2 °F 60% 30.07 in 5.0 mi ENE 4.6 mph - N/A   Haze
3:15 PM 52.5 °F - 39.9 °F 62% 30.07 in 4.0 mi East 3.5 mph - N/A   Haze
3:35 PM 52.3 °F - 39.7 °F 62% 30.07 in 4.0 mi East 3.5 mph - N/A   Haze
3:55 PM 52.3 °F - 40.1 °F 63% 30.07 in 7.0 mi East 3.5 mph - N/A   Clear
4:15 PM 52.2 °F - 40.5 °F 64% 30.07 in 10.0 mi ENE 4.6 mph - N/A   Clear
4:35 PM 51.8 °F - 40.6 °F 66% 30.06 in 10.0 mi East 3.5 mph - N/A   Scattered Clouds
4:55 PM 51.3 °F - 40.6 °F 67% 30.05 in 10.0 mi Calm Calm - N/A   Overcast
5:15 PM 50.9 °F - 41.0 °F 69% 30.06 in 10.0 mi Calm Calm - N/A Rain Light Rain
5:35 PM 49.1 °F - 43.3 °F 81% 30.06 in 10.0 mi Calm Calm - N/A   Light Drizzle
5:55 PM 48.2 °F - 44.2 °F 86% 30.05 in 10.0 mi Calm Calm - N/A Rain Light Rain
6:15 PM 47.7 °F - 44.8 °F 90% 30.06 in 10.0 mi Calm Calm - N/A Rain Light Rain
6:35 PM 46.9 °F - 44.8 °F 92% 30.07 in 10.0 mi Calm Calm - N/A Rain Light Rain
6:55 PM 46.6 °F - 45.0 °F 94% 30.07 in 10.0 mi Calm Calm - 0.01 in Rain Light Rain
7:15 PM 46.4 °F - 45.1 °F 95% 30.07 in 7.0 mi Calm Calm - 0.02 in Rain Light Rain
7:35 PM 46.4 °F - 45.1 °F 95% 30.07 in 5.0 mi Calm Calm - 0.03 in Rain Rain
7:55 PM 46.2 °F - 45.1 °F 96% 30.07 in 5.0 mi Calm Calm - 0.05 in Rain Light Rain
8:15 PM 46.0 °F - 45.1 °F 97% 30.07 in 4.0 mi Calm Calm - 0.03 in Rain Rain
8:35 PM 45.9 °F - 45.0 °F 97% 30.07 in 5.0 mi Calm Calm - 0.05 in Rain Light Rain
8:55 PM 45.7 °F - 44.8 °F 97% 30.07 in 5.0 mi Calm Calm - 0.05 in   Mostly Cloudy
9:35 PM 45.7 °F - 45.0 °F 97% 30.09 in 5.0 mi Calm Calm - N/A   Overcast
9:55 PM 45.7 °F 44.4 °F 45.0 °F 97% 30.08 in 4.0 mi ESE 3.5 mph - N/A   Overcast
10:15 PM 45.5 °F - 44.8 °F 97% 30.08 in 5.0 mi Calm Calm - N/A   Overcast
10:35 PM 45.7 °F - 45.0 °F 97% 30.07 in 7.0 mi Calm Calm - N/A   Overcast
10:55 PM 45.5 °F - 44.8 °F 97% 30.07 in 7.0 mi Calm Calm - N/A   Overcast
11:15 PM 45.5 °F - 44.8 °F 97% 30.07 in 4.0 mi Calm Calm - N/A   Overcast
11:35 PM 45.5 °F - 44.8 °F 97% 30.07 in 4.0 mi Calm Calm - N/A   Overcast
11:55 PM 45.5 °F - 44.8 °F 97% 30.06 in 5.0 mi Calm Calm - N/A   Overcast